Lid_Strength_Index
3 2 2 2 2 2 2 2 3 3 3 3 2 1 1 2 2 3 2 3 3 3 3 3 3 2 3 3 3 4 4 4 5 4 3 2 1 1 1 1 0 1 2
2 2 2 2 2 3 3 3 3 4 3 1 1 1 1 2 2 2 3 3 3 3 3 3 2 1 2 3 4 4 4 3 4 5 3 2 1 1 1 1 1 1 2
2 3 3 2 3 4 3 2 1 2 2 1 2 2 2 2 2 2 2 2 2 3 2 2 2 2 2 3 4 4 4 2 2 3 3 2 1 1 2 2 2 2 2
3 3 3 3 3 3 2 2 2 2 1 2 2 2 1 2 2 2 2 2 3 2 2 2 1 2 3 3 3 3 3 3 2 3 3 3 3 2 2 3 3 2 3
3 3 3 3 3 2 3 3 3 3 2 3 3 3 2 2 2 1 2 2 3 3 2 2 1 1 3 3 3 3 3 3 3 3 3 3 3 3 3 2 3 2 3
3 3 3 3 3 3 4 4 4 4 3 3 3 3 3 4 10 7 4 3 3 3 3 3 2 2 4 5 4 4 2 2 3 3 4 4 3 3 2 3 2 3 4
3 3 2 3 3 3 3 4 4 3 2 3 3 3 4 6 10 9 7 3 3 3 3 2 1 1 3 3 7 6 6 5 4 4 3 3 3 3 2 2 2 3 4
3 3 2 2 3 3 3 3 3 2 2 2 3 4 5 5 9 9 6 2 2 3 2 1 1 2 3 3 3 3 3 3 3 3 3 2 2 2 1 1 3 3 2
3 3 2 3 3 2 3 2 2 2 2 3 4 4 3 3 9 9 5 3 4 4 2 2 1 3 9 8 3 4 5 5 7 6 6 7 7 6 4 2 3 3 4
3 3 2 2 2 3 2 2 2 3 3 3 3 4 6 4 9 9 5 3 3 4 4 4 7 5 10 9 3 4 4 4 3 3 4 6 5 5 6 2 2 3 5
2 2 2 2 2 2 2 2 3 2 2 3 3 4 3 3 5 9 7 3 3 3 4 4 5 10 10 9 7 3 4 3 5 3 3 3 3 3 2 2 2 3 4
2 2 2 2 2 2 2 3 2 3 3 3 3 3 2 3 8 9 8 7 6 3 4 4 7 11 10 9 6 10 9 5 2 3 3 3 3 3 2 2 2 2 3
2 3 3 2 2 2 2 3 3 3 3 3 4 4 3 4 6 10 10 10 8 4 4 8 11 11 11 10 11 10 7 2 3 3 3 3 2 3 3 3 3 2 2
3 3 4 3 3 3 2 3 3 3 3 3 4 4 3 4 4 5 5 6 8 7 8 7 7 8 8 7 5 4 3 2 3 3 3 3 3 3 4 3 4 3 3
3 3 3 3 4 6 8 7 3 4 4 3 3 4 3 4 4 6 5 4 4 6 5 4 4 4 4 4 4 4 3 3 3 3 3 4 4 4 4 4 4 4 4
3 3 3 3 4 5 6 8 13 13 12 11 8 5 4 8 10 9 10 11 10 9 4 4 4 4 4 4 4 4 4 5 4 3 4 3 4 4 4 4 4 4 5
3 3 3 3 4 4 4 5 7 9 12 13 11 10 10 10 11 11 12 12 13 9 4 5 4 4 4 4 3 4 4 3 3 3 4 4 4 3 5 4 4 4 4
3 6 3 3 3 4 4 4 4 4 5 7 12 11 12 12 12 13 13 9 5 6 4 4 5 5 5 5 5 5 5 5 4 4 4 3 3 3 4 4 3 3 3
3 3 2 2 3 4 4 4 4 5 6 7 7 10 13 13 13 13 12 4 4 3 4 5 5 4 4 4 4 4 4 4 4 4 4 3 3 3 3 3 3 7 6
3 7 5 2 3 3 3 4 5 5 4 4 4 5 8 7 7 7 6 5 4 3 2 3 3 2 2 2 2 3 3 4 3 3 2 2 2 2 3 2 2 3 4
3 4 6 2 3 3 3 4 4 4 3 4 4 7 14 5 5 5 5 3 3 3 2 2 2 2 2 2 2 2 2 2 2 2 1 1 1 2 1 1 2 2 3
3 3 3 3 2 3 3 3 2 3 3 3 4 7 13 4 4 4 4 5 7 8 7 6 7 8 8 7 7 3 2 2 3 3 2 2 2 2 2 2 3 3 4
2 3 3 3 3 6 3 2 2 3 3 3 3 3 3 3 4 6 7 8 10 10 9 9 10 10 10 9 9 10 7 7 7 5 4 2 2 3 2 2 2 3 3
4 5 5 5 4 3 3 3 3 6 3 3 4 4 5 7 8 9 10 10 11 12 13 12 13 13 12 12 11 12 13 12 8 5 3 4 4 5 4 4 4 4 5
7 7 7 8 8 8 8 7 7 7 7 8 9 8 8 9 10 11 12 13 13 14 14 14 14 14 13 14 14 13 15 16 12 13 7 8 7 7 6 7 6 7 7
10 9 8 9 10 10 9 9 10 10 10 10 11 12 13 13 13 13 13 13 14 15 15 15 15 14 15 15 16 16 16 16 14 15 9 9 10 10 9 9 9 9 9